Regional Weather Roundup
Issued by NWS Wakefield, VA

Home | Current Version | Previous Version | Text Only | Print | Product List | Glossary On
Versions: 1 2 3 4 5 6 7 8 9 10 11 12 13 14 15 16 17 18 19 20 21 22 23 24 25 26 27 28 29 30 31 32 33 34 35 36 37 38 39 40 41 42 43 44 45 46 47 48 49 50
000
ASUS41 KAKQ 250210
RWRAKQ

REGIONAL WEATHER ROUNDUP
NATIONAL WEATHER SERVICE WAKEFIELD VA
900 PM EST WED DEC 24 2014

Note: "fair" indicates few or no clouds below 12,000 feet with no
significant weather and/or obstructions to visibility. * = Denotes
station may not report precipitation (e.g., rain,snow,etc.),
thunder or fog.

VAZ042-051-052>054-056-250300-
NORTHERN VIRGINIA

CITY           SKY/WX    TMP DP  RH WIND       PRES   REMARKS
WASH NATIONAL  DRZL/FOG  52  48  87 S5        29.57F VSB 1/8
DULLES         DRZL/FOG  51  51 100 S9        29.56F VSB 1/4
FORT BELVOIR   FOG       51  51  97 SE2       29.58F VSB 3/4
QUANTICO       FOG       50  48  93 S5        29.58F VSB 1/4
FREDERICKSBRG* CLOUDY    57  57 100 S9        29.57F
STAFFORD*      FOG       53  53 100 SE3       29.61F VSB 1/2
WARRENTON      FOG       53  53 100 CALM      29.57F VSB 1
CULPEPER*      FOG       52  52 100 CALM      29.57F VSB 1
MANASSAS*      CLOUDY    54  54 100 CALM      29.57F VSB 1
LEESBURG*      CLOUDY    52  52 100 S8        29.56F FOG
WINCHESTER     CLOUDY    45  43  93 CALM      29.50F FOG
FRONT ROYAL*   CLOUDY    45  45 100 CALM      29.49F
LURAY*         CLOUDY    52  52 100 SW6       29.52F
$$

VAZ048-049-060>072-079>083-250300-
CENTRAL AND SOUTH CENTRAL VIRGINIA

CITY           SKY/WX    TMP DP  RH WIND       PRES   REMARKS
RICHMOND       CLOUDY    65  62  90 S13       29.62F
CHESTERFIELD*  CLOUDY    64  55  72 S9        29.63S
PETERSBURG*    CLOUDY    66  64  95 S5        29.64S
HANOVER        FOG       53  53 100 CALM      29.62F VSB 1/4
TAPPAHANNOCK*  CLOUDY    64  63  95 S9        29.61F
QUINTON*       CLOUDY    64  63  95 S9G22     29.63S
CHARLOTTSVILLE CLOUDY    51  51 100 S9        29.57F FOG
GORDONSVILLE*  CLOUDY    50  50  99 SW7       29.58F FOG
ORANGE*        CLOUDY    52  52 100 SW5       29.59F FOG
LOUISA*        FOG       54  54 100 S5        29.58F VSB 1
BUMPASS*       CLOUDY    54  54  99 SE6       29.60F VSB 1
FARMVILLE*     CLOUDY    53  53 100 CALM      29.63R FOG
CREWE*         CLOUDY    64  63  94 S10G16    29.61F
FORT PICKETT*  CLOUDY    64  63  97 S10G17    29.62F
CHASE CITY*    CLOUDY    64  64 100 CALM      29.64S
CLARKSVILLE*   CLOUDY    63  61  94 S14       29.64R
SOUTH HILL*    CLOUDY    64  61  92 S10       29.70F
LAWRENCEVILLE* CLOUDY    64  63  96 S8        29.65F
EMPORIA*       CLOUDY    63  61  94 S6        29.68R
$$

VAZ088>098-250300-
SOUTHEAST VIRGINIA

CITY           SKY/WX    TMP DP  RH WIND       PRES   REMARKS
NORFOLK        CLOUDY    68  62  81 S13       29.68F
VIRGINIA BEACH CLOUDY    69  63  81 S13G21    29.69F
NORFOLK NAVAL  CLOUDY    71  63  75 S12G20    29.69F
WEST POINT*    CLOUDY    67  65  91 S13       29.65S
SALUDA*        MOCLDY    64  62  94 S10G16    29.63F
NEWPORT NEWS   CLOUDY    70  63  78 S9        29.67F
LANGLEY AFB    CLOUDY    66  65  98 S9        29.67F
FORT EUSTIS    CLOUDY    63 N/A N/A S9        29.64F
WILLIAMSBURG*  CLOUDY    63  63 100 S3        29.67S
HR EXEC AP*    CLOUDY    66  63  88 S12G21    29.71S
FRANKLIN*      CLOUDY    66  66 100 S10       29.66F
WAKEFIELD      LGT RAIN  66  62  87 VRB5      29.65F
$$

VAZ020-022-025-037-045-250300-
WEST CENTRAL AND SOUTHWEST VIRGINIA

CITY           SKY/WX    TMP DP  RH WIND       PRES   REMARKS
STAUNTON*      CLOUDY    57  54  87 SW8       29.58R
WAYNESBORO*    CLOUDY    58  54  86 SW5       29.57R
HOT SPRINGS VA CLOUDY    53  53 100 SW16G37   29.57F
LYNCHBURG      CLOUDY    48  48 100 SW5       29.63F FOG
DANVILLE       CLOUDY    50  49  96 CALM      29.64S
SOUTH BOSTON*  CLOUDY    50  49  95 CALM      29.64S
MARTINSVILLE   CLOUDY    49  49 100 CALM      29.67S FOG
ROANOKE        CLOUDY    49  47  93 CALM      29.63F
BLACKSBURG     CLOUDY    56  52  88 S9G17     29.63F
DUBLIN*        CLOUDY    58  55  91 S15G21    29.61F
MARION*        CLOUDY    51  47  86 W17G38    29.69R FOG
HILLSVILLE*    CLOUDY    53  52  98 S14G21    29.64F
RICHLANDS*     DRIZZLE   44  42  93 NW3       29.70R
WISE*          CLOUDY    43  39  87 W12G20    29.74R
ABINGDON*      CLOUDY    50  45  83 W10G18    29.73R
$$

MDZ021>025-VAZ099-100-250300-
SOUTHERN MARYLAND AND THE DELMARVA PENINSULA

CITY           SKY/WX    TMP DP  RH WIND       PRES   REMARKS
PATUXENT RIVER LGT RAIN  62  60  93 S8        29.61S FOG
BAY BRIDGE APT FOG       52  52 100 S6        29.60F VSB 1/4
LEONARDTOWN    CLOUDY    59  57  94 S6        29.62F
DOVER          CLOUDY    62  62 100 S15       29.60R
GEORGETOWN     CLOUDY    64  61  90 S12       29.63F
EASTON         NOT AVBL
CAMBRIDGE      CLOUDY    59  55  88 S9G18     29.61S
SALISBURY      CLOUDY    66  61  84 S9        29.64F
OCEAN CITY     FOG       57  56  96 SW15G22   29.67S VSB 1/2
WALLOPS ISLAND FOG       55  55 100 SW15G24   29.67F VSB 1/2
ACCOMACK*      CLOUDY    61  59  94 S10G18    29.66F
$$

NCZ012>017-030>032-250300-
NORTH CENTRAL AND EASTERN NORTH CAROLINA

CITY           SKY/WX    TMP DP  RH WIND       PRES   REMARKS
ROANOKE RAPIDS CLOUDY    63  61  94 SW8       29.67S
RALEIGH        CLOUDY    65  60  84 SW13G25   29.68F
ELIZABETH CITY MOCLDY    69  61  75 S13G21    29.73F
AHOSKIE*       CLOUDY    66  62  85 S12G18    29.67F
EDENTON*       MOCLDY    65  61  88 S12       29.74S
CURRITUCK*     MOCLDY    66  62  85 S8        29.74F
KILL DEVIL HLS MOCLDY    63  62  95 S7G16     29.76F
MANTEO         MOCLDY    59  57  94 S14       29.78F
CAPE HATTERAS  MOCLDY    60  60 100 SW6       29.82F FOG
TARBORO*       CLOUDY    68  62  80 S10G18    29.69F
GOLDSBORO      CLOUDY    67  66  97 S9        29.68F
WASHINGTON     CLOUDY    66  62  85 S7        29.73F
GREENVILLE     CLOUDY    68  63  83 S15G21    29.73F
NEW BERN       CLOUDY    67  63  87 S13       29.77F
WILMINGTON     CLOUDY    66  64  93 S8        29.76F
$$

VAZ048-250300-
ELSEWHERE

CITY           SKY/WX    TMP DP  RH WIND       PRES   REMARKS
HARRISBURG PA  CLOUDY    49  48  97 SE6       29.53F FOG
BALTIMORE      DRZL/FOG  53  53 100 S5        29.58S VSB 1/4
ANNAPOLIS      FOG       52  51  97 S10       29.60F VSB 1/2
ANDREWS AFB    CLOUDY    55  55 100 S12       29.58F FOG
PHILADELPHIA   CLOUDY    61  59  93 S10       29.60F
HENDERSON NC   CLOUDY    64  62  94 S14G24    29.65F
GREENSBORO     CLOUDY    62  61  96 SW16G25   29.64S
ROCKY MOUNT    CLOUDY    67  62  84 S12       29.68F
$$

VAZ100-250300-
MARINE

STATION/POSITION TIME  TEMP    WIND        PRES    WAVE   SWELL
                       AIR SEA DIR/SP/G            HT/PER HT/PER
                 (UTC) (F)     (DEG/KT/KT) (MB)    (FT/S) (FT/S)
CAPE MAY NJ      0200   54 47  140/  9/ 11 1003.2S
LEWES DE         0200   62 44  180/  5/  7 1003.4F
15NM E FENWICK I 0200   52 46              1004.2R   8/ 6
OCEAN-CITY-INLET 0200          210/ 12/ 13 1004.4F
WACHAPREAGUE VA  0200   54 48  220/  7/ 12 1004.7F
THOMAS POINT MD  0200   49 42  210/  9/ 10 1003.9S
GOOSES REEF MD   0200   47     VRB 14/ 16  1001.5S
COVE POINT MD    0200   48     190/ 12/ 13 1002.5F
SOLOMONS ISLAND  0200      44                N/A
BISHOPS HEAD MD  0200   50 44  160/ 15/ 15 1002.4F
PINEY POINT MD   0200          220/  9/ 10   N/A
POTOMAC MD       0200   51     190/  8/ 10 1002.4F
CAMBRIDGE MD     0200   59 40  180/  7/ 11 1002.7F
LEWISETTA VA     0200   63 43  190/ 11/ 16 1002.3F
RAPPAHANNOCK LGT 0200          170/ 18/ 19 1004.4F
STINGRAY PT      0200   50     170/ 10/ 12 1004.5F
YORK RVR RNG VA  0200   55     190/ 14/ 15 1003.8F
YORKTOWN VA      0200   66 45  190/ 10/ 12 1004.0S
JAMESTOWN VA     0200   61     200/ 10/ 16   N/A
DOMINION TERM VA 0200   60     190/ 11/ 13 1005.0F
KIPTOPEKE VA     0200      51  180/ 11/ 12   N/A
CHES BAY BRIDGE  0200          180/ 15/ 19 1004.6R
CAPE HENRY VA    0200   68     180/ 13/ 19 1004.3R
CHESAPEAKE LGHT  0100   59     190/ 30/ 31 1005.7F
WILLOUBY STN VA  0200   67     190/ 16/ 18 1005.5S
S CRANEY ISL VA  0200          180/ 10/ 13 1004.9F
CAPE HENRY BUOY  0200      48                N/A     5/ 7
1ST LANDING BUOY 0200   61     190/ 16/ 17 1004.9F
CAPE CHARLES BUO 0200      47                N/A     5/ 6   3/14
64NM E OF VA BCH 0200   60 53  190/ 21/ 25 1007.3F   7/ 7   3/14
DUCK PIER NC     0200   67 50  180/ 19/ 23 1006.4F
44100 DUCK FRF   0200      50                N/A     5/ 7
44056 DUCK FRF   0200      50                N/A     4/ 7
OREGON INLET NC  0200   57 52  180/ 11/ 14 1008.8F
HATTERAS NC      0200          210/  6/  8 1010.2F
DIAMOND SHLS NC  0200   74                 1009.9F   9/ 8
CAPE LOOKOUT NC  0100   62     150/  5/  6 1009.7F
$$



USA.gov is the U.S. government's official web portal to all federal, state and local government web resources and services.